• In Uzbekistan
  • List of Countries
  • For 7 days
  • Water Temperature
  • Satellite Maps
  • Weather Map
  • Weather Widgets
  • user-avatar
    Login

    Hourly Weather Novomatviivs'ke

    Today, 23 May, Wednesday

    Time Temperature Precipitation Wind Pressure Humidity
    00:00 +17°C° 0 mm 2 mps 760 mmHg 64%
    01:00 +16°C° 0 mm 2 mps 760 mmHg 67%
    02:00 +16°C° 0 mm 2 mps 760 mmHg 72%
    03:00 +16°C° 0 mm 3 mps 760 mmHg 74%
    04:00 +16°C° 0 mm 3 mps 760 mmHg 76%
    05:00 +16°C° 0 mm 3 mps 760 mmHg 78%
    06:00 +18°C° 0 mm 3 mps 760 mmHg 72%
    07:00 +20°C° 0 mm 3 mps 760 mmHg 66%
    08:00 +24°C° 0 mm 3 mps 760 mmHg 58%
    09:00 +25°C° 0 mm 3 mps 760 mmHg 53%
    10:00 +26°C° 0 mm 3 mps 760 mmHg 48%
    11:00 +28°C° 0 mm 3 mps 760 mmHg 43%
    12:00 +28°C° 0 mm 3 mps 760 mmHg 41%
    13:00 +29°C° 0 mm 2 mps 759 mmHg 40%
    14:00 +29°C° 0 mm 2 mps 759 mmHg 38%
    15:00 +29°C° 0 mm 3 mps 759 mmHg 40%
    16:00 +28°C° 0 mm 3 mps 758 mmHg 42%
    17:00 +28°C° 0 mm 3 mps 758 mmHg 44%
    18:00 +27°C° 0 mm 3 mps 758 mmHg 50%
    19:00 +25°C° 0 mm 3 mps 758 mmHg 55%
    20:00 +24°C° 0 mm 3 mps 758 mmHg 60%
    21:00 +22°C° 0 mm 3 mps 758 mmHg 62%
    22:00 +21°C° 0 mm 3 mps 758 mmHg 65%
    23:00 +21°C° 0 mm 3 mps 758 mmHg 67%

    Tomorrow, 24 May, Thursday

    Time Temperature Precipitation Wind Pressure Humidity
    00:00 +20°C° 0 mm 3 mps 758 mmHg 68%
    01:00 +19°C° 0 mm 3 mps 758 mmHg 69%
    02:00 +18°C° 0 mm 3 mps 757 mmHg 70%
    03:00 +18°C° 0 mm 3 mps 757 mmHg 71%
    04:00 +18°C° 0 mm 3 mps 757 mmHg 72%
    05:00 +18°C° 0 mm 3 mps 757 mmHg 73%
    06:00 +20°C° 0 mm 3 mps 757 mmHg 68%
    07:00 +22°C° 0 mm 3 mps 757 mmHg 64%
    08:00 +25°C° 0 mm 3 mps 758 mmHg 59%
    09:00 +26°C° 0 mm 3 mps 757 mmHg 53%
    10:00 +27°C° 0 mm 3 mps 757 mmHg 47%
    11:00 +28°C° 0 mm 3 mps 757 mmHg 41%
    12:00 +28°C° 0 mm 3 mps 757 mmHg 42%
    13:00 +28°C° 0 mm 3 mps 756 mmHg 42%
    14:00 +28°C° 0 mm 3 mps 756 mmHg 43%
    15:00 +28°C° 0 mm 3 mps 756 mmHg 43%
    16:00 +28°C° 0 mm 4 mps 755 mmHg 43%
    17:00 +28°C° 0 mm 4 mps 755 mmHg 43%
    18:00 +26°C° 0 mm 3 mps 755 mmHg 48%
    19:00 +24°C° 0 mm 3 mps 755 mmHg 54%
    20:00 +22°C° 0 mm 3 mps 755 mmHg 59%
    21:00 +21°C° 0 mm 3 mps 755 mmHg 62%
    22:00 +20°C° 0 mm 3 mps 755 mmHg 65%
    23:00 +19°C° 0 mm 3 mps 755 mmHg 69%

    Day after tomorrow, 25 May, Friday

    Time Temperature Precipitation Wind Pressure Humidity
    00:00 +19°C° 0 mm 3 mps 755 mmHg 71%
    01:00 +18°C° 0 mm 3 mps 755 mmHg 74%
    02:00 +18°C° 0 mm 3 mps 755 mmHg 77%
    03:00 +18°C° 0 mm 3 mps 755 mmHg 80%
    04:00 +17°C° 0 mm 3 mps 755 mmHg 82%
    05:00 +17°C° 0 mm 4 mps 755 mmHg 85%
    06:00 +19°C° 0 mm 4 mps 755 mmHg 79%
    07:00 +21°C° 0 mm 5 mps 755 mmHg 73%
    08:00 +23°C° 0 mm 5 mps 756 mmHg 67%
    09:00 +25°C° 0 mm 5 mps 755 mmHg 62%
    10:00 +27°C° 0 mm 5 mps 755 mmHg 58%
    11:00 +28°C° 0 mm 5 mps 755 mmHg 53%
    12:00 +28°C° 0.1 mm 5 mps 755 mmHg 51%
    13:00 +29°C° 0.1 mm 6 mps 755 mmHg 49%
    14:00 +29°C° 0.1 mm 6 mps 755 mmHg 47%
    15:00 +29°C° 0 mm 6 mps 755 mmHg 49%
    16:00 +28°C° 0 mm 6 mps 755 mmHg 51%
    17:00 +28°C° 0 mm 6 mps 755 mmHg 53%
    18:00 +26°C° 0 mm 6 mps 756 mmHg 60%
    19:00 +24°C° 0 mm 6 mps 756 mmHg 66%
    20:00 +22°C° 0 mm 5 mps 756 mmHg 72%
    21:00 +21°C° 0 mm 5 mps 757 mmHg 75%
    22:00 +21°C° 0 mm 5 mps 757 mmHg 77%
    23:00 +20°C° 0 mm 5 mps 757 mmHg 80%

    26 May, Saturday

    Time Temperature Precipitation Wind Pressure Humidity
    00:00 +20°C° 0 mm 6 mps 758 mmHg 79%
    01:00 +18°C° 0 mm 7 mps 758 mmHg 78%
    02:00 +18°C° 0 mm 7 mps 759 mmHg 77%
    03:00 +18°C° 0 mm 7 mps 759 mmHg 76%
    04:00 +17°C° 0 mm 7 mps 760 mmHg 75%
    05:00 +16°C° 0 mm 8 mps 760 mmHg 74%
    06:00 +17°C° 0 mm 8 mps 760 mmHg 70%
    07:00 +17°C° 0 mm 8 mps 761 mmHg 65%
    08:00 +18°C° 0 mm 8 mps 761 mmHg 61%
    09:00 +20°C° 0 mm 8 mps 762 mmHg 57%
    10:00 +20°C° 0 mm 8 mps 762 mmHg 53%
    11:00 +21°C° 0 mm 8 mps 762 mmHg 49%
    12:00 +22°C° 0 mm 8 mps 762 mmHg 47%
    13:00 +22°C° 0 mm 8 mps 762 mmHg 45%
    14:00 +23°C° 0 mm 8 mps 762 mmHg 43%
    15:00 +22°C° 0 mm 8 mps 762 mmHg 42%
    16:00 +22°C° 0 mm 8 mps 763 mmHg 42%
    17:00 +21°C° 0 mm 8 mps 763 mmHg 41%
    18:00 +20°C° 0 mm 7 mps 763 mmHg 45%
    19:00 +17°C° 0 mm 6 mps 763 mmHg 48%
    20:00 +16°C° 0 mm 6 mps 764 mmHg 52%
    21:00 +15°C° 0 mm 6 mps 764 mmHg 54%
    22:00 +14°C° 0 mm 6 mps 764 mmHg 55%
    23:00 +14°C° 0 mm 6 mps 764 mmHg 57%

    27 May, Sunday

    Time Temperature Precipitation Wind Pressure Humidity
    00:00 +13°C° 0 mm 6 mps 764 mmHg 59%
    01:00 +12°C° 0 mm 5 mps 764 mmHg 61%
    02:00 +12°C° 0 mm 5 mps 764 mmHg 64%
    03:00 +10°C° 0 mm 6 mps 764 mmHg 65%
    04:00 +10°C° 0 mm 6 mps 765 mmHg 66%
    05:00 +10°C° 0 mm 6 mps 765 mmHg 67%
    06:00 +11°C° 0 mm 6 mps 765 mmHg 61%
    07:00 +14°C° 0 mm 7 mps 765 mmHg 55%
    08:00 +15°C° 0 mm 7 mps 765 mmHg 49%
    09:00 +17°C° 0 mm 7 mps 765 mmHg 46%
    10:00 +18°C° 0 mm 7 mps 764 mmHg 42%
    11:00 +20°C° 0 mm 7 mps 764 mmHg 39%
    12:00 +21°C° 0 mm 7 mps 764 mmHg 38%
    13:00 +22°C° 0 mm 7 mps 764 mmHg 37%
    14:00 +22°C° 0 mm 7 mps 763 mmHg 36%
    15:00 +22°C° 0 mm 7 mps 763 mmHg 37%
    16:00 +22°C° 0 mm 7 mps 763 mmHg 38%
    17:00 +22°C° 0 mm 6 mps 763 mmHg 39%
    18:00 +20°C° 0 mm 6 mps 763 mmHg 44%
    19:00 +17°C° 0 mm 5 mps 763 mmHg 49%
    20:00 +17°C° 0 mm 4 mps 763 mmHg 54%
    21:00 +15°C° 0 mm 4 mps 763 mmHg 57%
    22:00 +14°C° 0 mm 4 mps 763 mmHg 61%
    23:00 +13°C° 0 mm 4 mps 763 mmHg 64%

    28 May, Monday

    Time Temperature Precipitation Wind Pressure Humidity
    00:00 +13°C° 0 mm 4 mps 763 mmHg 67%
    01:00 +12°C° 0 mm 4 mps 762 mmHg 69%
    02:00 +12°C° 0 mm 4 mps 762 mmHg 72%
    03:00 +12°C° 0 mm 4 mps 762 mmHg 73%
    04:00 +12°C° 0 mm 5 mps 762 mmHg 75%
    05:00 +12°C° 0 mm 5 mps 762 mmHg 76%
    06:00 +14°C° 0 mm 5 mps 762 mmHg 67%
    07:00 +16°C° 0 mm 6 mps 762 mmHg 58%
    08:00 +18°C° 0 mm 7 mps 762 mmHg 50%
    09:00 +21°C° 0 mm 7 mps 762 mmHg 45%
    10:00 +22°C° 0 mm 7 mps 762 mmHg 41%
    11:00 +24°C° 0 mm 7 mps 761 mmHg 37%
    12:00 +24°C° 0 mm 6 mps 761 mmHg 36%
    13:00 +26°C° 0 mm 6 mps 761 mmHg 36%
    14:00 +27°C° 0 mm 6 mps 760 mmHg 35%
    15:00 +27°C° 0 mm 6 mps 760 mmHg 37%
    16:00 +27°C° 0 mm 6 mps 760 mmHg 38%
    17:00 +27°C° 0 mm 6 mps 759 mmHg 40%
    18:00 +25°C° 0 mm 5 mps 759 mmHg 46%
    19:00 +22°C° 0 mm 4 mps 759 mmHg 52%
    20:00 +20°C° 0 mm 4 mps 759 mmHg 58%
    21:00 +19°C° 0 mm 4 mps 759 mmHg 60%
    22:00 +19°C° 0 mm 4 mps 759 mmHg 62%
    23:00 +18°C° 0 mm 4 mps 759 mmHg 64%
    Show more